This is the latest recevied weather packets stored in our database for station/object K8JCL-13. If no packets are shown the sender has not sent any weather packets the latest 10 day(s).
| Time | Temp. | Humidity | Pressure | Rain* | Wind** | Luminosity | Snow |
|---|---|---|---|---|---|---|---|
| 1777992516 | 18.89° C | 84% | 1009.2 hPa | 0 mm | - | 383 W/m² | - |
| 1777992215 | 18.89° C | 84% | 1009.1 hPa | 0 mm | - | 334 W/m² | - |
| 1777991912 | 18.33° C | 85% | 1009 hPa | 0 mm | - | 358 W/m² | - |
| 1777991609 | 18.33° C | 85% | 1008.7 hPa | 0 mm | - | 189 W/m² | - |
| 1777991306 | 18.33° C | 85% | 1008.9 hPa | 0 mm | - | 265 W/m² | - |
| 1777991004 | 17.78° C | 87% | 1008.6 hPa | 0 mm | - | 344 W/m² | - |
| 1777990701 | 18.33° C | 87% | 1009 hPa | 0 mm | - | 295 W/m² | - |
| 1777990398 | 17.78° C | 88% | 1009.2 hPa | 0 mm | - | 323 W/m² | - |
| 1777989791 | 17.78° C | 90% | 1009 hPa | 0 mm | - | 195 W/m² | - |
| 1777989488 | 17.78° C | 89% | 1008.4 hPa | 0 mm | - | 292 W/m² | - |
| 1777989184 | 17.22° C | 91% | 1008.3 hPa | 0 mm | - | 302 W/m² | - |
| 1777988880 | 16.67° C | 93% | 1008.3 hPa | 0 mm | - | 303 W/m² | - |
| 1777988578 | 16.11° C | 95% | 1008.4 hPa | 0 mm | - | 259 W/m² | - |
| 1777988274 | 15.56° C | 97% | 1008.3 hPa | 0 mm | - | 245 W/m² | - |
| 1777987971 | 15° C | 97% | 1008.2 hPa | 0 mm | - | 137 W/m² | - |
| 1777987667 | 15° C | 97% | 1008.1 hPa | 0 mm | - | 111 W/m² | - |
| 1777987364 | 15° C | 98% | 1007.7 hPa | 0 mm | - | 142 W/m² | - |
| 1777987061 | 15° C | 99% | 1007.9 hPa | 0 mm | - | 214 W/m² | - |
| 1777986758 | 14.44° C | 99% | 1007.8 hPa | 0 mm | - | 141 W/m² | - |
| 1777986456 | 14.44° C | 99% | 1008.2 hPa | 0 mm | - | 154 W/m² | - |
| 1777986154 | 13.89° C | 99% | 1007.9 hPa | 0 mm | - | 124 W/m² | - |
| 1777985851 | 13.89° C | 99% | 1008 hPa | 0 mm | - | 84 W/m² | - |
| 1777985548 | 13.89° C | 99% | 1008.5 hPa | 0 mm | - | 88 W/m² | - |
| 1777985245 | 13.89° C | 99% | 1008.2 hPa | 0 mm | - | 79 W/m² | - |
| 1777984942 | 13.89° C | 99% | 1008.3 hPa | 0 mm | - | 57 W/m² | - |
* Rain latest hour (hover to see other rain measurements)
** Current wind speed in m/s (hover to see current wind gust speed)